Brooke Mckenzie — WDE9826 — position and weather

sailwx.info

Track history (hours):
 
Tides and Currents Weather Stations Pressure Air Temp Water Temp Dewpoint Dewpoint Depression Visibility Wind Speed Wind Dir Waves Ship Positions

Brooke Mckenzie

Owner: Western Rivers Boat Management, Inc., Paducah, KY. More information available from US FCC via Universal Licensing System and Coast Guard Vessel Documentation Center.

Last reported at 2017-Oct-02 12:28 UTC. Time now 2017-Nov-18 12:14 UTC.
Position N 38°55' W 090°19'.
Warning: this ship's position is 46 days out of date.

Length 41 m; draft 3.3 m.

Type: Towing. MMSI: 367421740.

Date/timePositionNaut miles runAvg speedWind from/ knotsBaromVisibWave heightAir tempDewpointWater temp
2017-Oct-02 12:28N 38°55' W 090°19'5 0.3
2017-Oct-01 16:44N 38°54' W 090°12'1 4.0
2017-Oct-01 16:22N 38°55' W 090°14'0 0.1
2017-Oct-01 15:46N 38°55' W 090°13'0 0.0
2017-Oct-01 15:30N 38°55' W 090°13'0 0.0
2017-Oct-01 14:59N 38°55' W 090°13'0 0.0
2017-Oct-01 14:30N 38°55' W 090°13'0 0.0
2017-Oct-01 14:01N 38°55' W 090°13'  
2017-Sep-27 09:45N 40°49' W 091°06'0 0.4
2017-Sep-27 09:30N 40°49' W 091°06'2 3.6
2017-Sep-27 09:00N 40°47' W 091°06'3 4.7
2017-Sep-27 08:23N 40°44' W 091°07'2 5.5
2017-Sep-27 08:00N 40°42' W 091°07'113 2.8
2017-Sep-25 15:29N 38°52' W 090°33'3 5.2
2017-Sep-25 15:00N 38°54' W 090°31'3 5.2
2017-Sep-25 14:30N 38°56' W 090°29'3 5.3
2017-Sep-25 14:00N 38°58' W 090°26'1 1.5
2017-Sep-25 13:30N 38°58' W 090°27'2 4.9
2017-Sep-25 13:00N 38°58' W 090°30'2 0.3
2017-Sep-25 05:40N 38°58' W 090°33'1 4.9
2017-Sep-25 05:30N 38°58' W 090°32'2 3.3
2017-Sep-25 05:00N 38°58' W 090°30'0 0.2
2017-Sep-25 04:30N 38°58' W 090°30'2 4.5
2017-Sep-25 04:00N 38°58' W 090°27'2 4.7
2017-Sep-25 03:30N 38°58' W 090°24'0 0.0
2017-Sep-25 03:00N 38°58' W 090°24'2 3.8
2017-Sep-25 02:30N 38°57' W 090°22'2 4.8
2017-Sep-25 02:00N 38°56' W 090°19'  
Track history (hours):
 
Tides and Currents Weather Stations Pressure Air Temp Water Temp Dewpoint Dewpoint Depression Visibility Wind Speed Wind Dir Waves Ship Positions

Brooke Mckenzie

Owner: Western Rivers Boat Management, Inc., Paducah, KY. More information available from US FCC via Universal Licensing System and Coast Guard Vessel Documentation Center.

Last reported at 2017-Oct-02 12:28 UTC. Time now 2017-Nov-18 12:14 UTC.
Position N 38°55' W 090°19'.
Warning: this ship's position is 46 days out of date.

Length 41 m; draft 3.3 m.

Type: Towing. MMSI: 367421740.

Date/timePositionNaut miles runAvg speedWind from/ knotsBaromVisibWave heightAir tempDewpointWater temp
2017-Oct-02 12:28N 38°55' W 090°19'5 0.3
2017-Oct-01 16:44N 38°54' W 090°12'1 4.0
2017-Oct-01 16:22N 38°55' W 090°14'0 0.1
2017-Oct-01 15:46N 38°55' W 090°13'0 0.0
2017-Oct-01 15:30N 38°55' W 090°13'0 0.0
2017-Oct-01 14:59N 38°55' W 090°13'0 0.0
2017-Oct-01 14:30N 38°55' W 090°13'0 0.0
2017-Oct-01 14:01N 38°55' W 090°13'  
2017-Sep-27 09:45N 40°49' W 091°06'0 0.4
2017-Sep-27 09:30N 40°49' W 091°06'2 3.6
2017-Sep-27 09:00N 40°47' W 091°06'3 4.7
2017-Sep-27 08:23N 40°44' W 091°07'2 5.5
2017-Sep-27 08:00N 40°42' W 091°07'113 2.8
2017-Sep-25 15:29N 38°52' W 090°33'3 5.2
2017-Sep-25 15:00N 38°54' W 090°31'3 5.2
2017-Sep-25 14:30N 38°56' W 090°29'3 5.3
2017-Sep-25 14:00N 38°58' W 090°26'1 1.5
2017-Sep-25 13:30N 38°58' W 090°27'2 4.9
2017-Sep-25 13:00N 38°58' W 090°30'2 0.3
2017-Sep-25 05:40N 38°58' W 090°33'1 4.9
2017-Sep-25 05:30N 38°58' W 090°32'2 3.3
2017-Sep-25 05:00N 38°58' W 090°30'0 0.2
2017-Sep-25 04:30N 38°58' W 090°30'2 4.5
2017-Sep-25 04:00N 38°58' W 090°27'2 4.7
2017-Sep-25 03:30N 38°58' W 090°24'0 0.0
2017-Sep-25 03:00N 38°58' W 090°24'2 3.8
2017-Sep-25 02:30N 38°57' W 090°22'2 4.8
2017-Sep-25 02:00N 38°56' W 090°19'  

Dump ship's entire track history